{"data":{"norad_id":58713,"epoch":"2026-09-20T13:46:07.545216Z","epoch_age_seconds":143176,"freshness":"FRESH","line1":"1 58713U 24002J   26263.57369844  .00001140  00000+0  44871-4 0  9990","line2":"2 58713  53.1601  43.2551 0001228  99.6982 260.4159 15.34390793151871","mean_motion":15.34390793,"eccentricity":0.0001228,"inclination_deg":53.1601,"raan_deg":43.2551,"arg_perigee_deg":99.6982,"mean_anomaly_deg":260.4159,"bstar":4.4871e-5,"rev_number":15187,"period_min":93.84832120796,"perigee_km":461.89054694627,"apogee_km":463.57066403018,"semimajor_km":6840.8676054882,"source":"CELESTRAK","updated_at":"2026-09-21T09:00:33.948547Z"}}